Wind_Speed
29 28 28 30 31 33 35 36 38 39 39 40 39 39 38 35 32 32 30 28 27 28 28 28 29 30 32 33 36 37 37 35 34 32 31 32 31 28 27 26 26 26 27 28 30 33 39 48 59 61 56 51 50 52 56 59 61 59 59 61 62 61 64 62 58 55 55 55 56 53 46 42 44 45 44 44 44 43 42 40 37 35 33 30 30 29 24
28 29 30 32 34 35 37 38 40 41 40 40 39 37 36 33 29 30 30 28 28 28 28 30 31 32 34 35 37 38 37 36 33 29 29 28 25 23 24 25 24 25 26 28 29 31 36 41 52 61 60 53 47 49 55 59 62 62 61 62 63 62 63 62 57 54 52 52 53 53 47 42 43 44 43 43 42 41 41 39 36 35 32 29 31 30 24
30 31 32 34 36 38 39 40 41 40 39 39 39 37 35 32 28 28 29 29 28 29 30 31 32 34 35 36 37 36 35 34 30 27 24 22 20 19 21 23 24 24 26 28 28 29 33 36 44 57 63 57 47 47 53 57 61 64 64 64 65 64 64 64 58 53 52 52 52 50 46 43 42 40 41 42 43 44 43 40 39 38 34 31 33 31 23
31 33 34 36 38 39 41 41 41 40 38 38 38 36 33 31 28 28 30 30 30 31 32 32 33 35 37 38 37 36 33 30 26 23 19 17 17 18 19 22 23 24 25 28 29 28 30 32 35 50 62 60 50 47 49 52 57 64 67 64 64 65 65 65 61 56 55 54 53 51 49 47 44 41 40 42 45 46 43 41 40 38 34 32 34 29 23
33 35 36 37 39 40 41 41 41 39 38 37 37 35 32 32 31 30 31 31 31 32 33 33 35 37 38 39 38 35 30 25 20 18 15 14 16 17 18 20 22 24 25 27 28 28 28 28 28 40 56 61 54 47 45 46 51 62 68 66 64 66 66 66 64 60 57 55 53 51 50 49 47 44 40 40 45 47 44 43 39 35 34 33 31 28 27
35 36 37 38 39 40 40 41 40 39 39 38 37 35 33 33 33 31 32 32 31 32 33 34 35 37 39 40 39 33 25 19 16 15 13 12 15 17 19 20 22 24 26 27 27 27 27 26 25 33 50 60 58 47 40 40 45 56 68 69 65 66 67 67 66 62 58 55 53 51 51 50 48 48 43 38 43 48 46 43 37 33 34 33 28 28 29
36 37 37 38 39 40 40 40 40 40 39 38 37 36 33 33 32 30 31 33 33 33 34 34 35 37 39 39 37 31 22 15 14 13 11 12 16 18 20 20 21 23 25 26 25 25 26 25 22 28 45 58 61 51 38 36 40 50 65 70 67 66 68 69 68 63 58 56 54 51 51 51 49 49 44 36 39 47 47 42 36 31 32 30 27 27 30
36 37 38 39 40 40 40 41 40 40 39 38 37 35 33 32 32 31 32 34 35 34 34 35 36 38 39 37 36 29 17 11 12 12 11 13 16 17 19 19 20 21 23 23 23 24 25 25 21 24 41 55 62 56 40 34 36 44 61 70 69 67 68 69 69 65 59 57 55 51 49 49 48 47 44 36 35 44 47 42 35 31 28 27 25 24 28
37 37 38 39 40 40 41 40 40 39 38 37 36 35 32 31 32 33 33 33 34 34 35 36 36 37 38 36 34 27 16 11 12 13 14 16 17 15 17 19 19 20 21 21 22 22 23 23 20 21 35 49 60 58 43 34 34 40 57 69 70 68 67 68 70 67 61 58 54 48 45 48 49 47 46 42 38 42 49 45 38 33 27 24 25 24 25
38 38 38 39 40 40 40 39 38 38 38 37 35 34 32 31 32 33 32 31 32 32 34 35 36 37 37 35 33 26 15 13 12 12 14 18 17 15 16 18 17 17 18 18 19 21 21 21 20 18 27 42 57 59 46 37 34 37 52 67 70 69 67 67 71 70 64 59 54 48 45 50 54 52 51 50 45 43 49 50 42 37 30 24 25 27 25
39 39 39 39 40 39 38 38 38 38 38 37 36 35 34 34 34 33 32 30 30 30 32 34 36 37 36 35 33 27 17 14 13 12 13 16 17 17 17 17 16 15 16 16 17 18 19 20 18 16 21 34 52 59 48 38 33 35 47 63 70 71 68 67 73 74 67 60 55 52 50 52 57 57 55 55 50 43 47 53 47 38 33 28 28 29 29
40 40 40 39 38 36 36 37 38 38 38 37 37 37 36 35 35 34 32 31 29 29 30 34 36 36 35 34 32 28 19 14 12 11 11 13 15 16 17 17 16 15 16 16 17 18 18 18 14 11 16 27 48 59 50 40 33 32 42 58 67 71 69 68 74 76 69 59 55 56 55 54 57 59 57 55 51 44 44 52 49 40 36 35 34 34 34
41 41 40 38 36 35 36 38 38 38 38 38 38 38 37 35 34 33 32 30 29 28 30 33 35 35 34 33 31 28 21 14 11 11 10 11 12 13 14 14 13 14 15 16 17 18 16 14 10 7 10 19 42 58 52 42 34 31 36 50 64 71 70 69 74 76 69 62 58 57 56 55 57 59 57 55 52 46 45 50 50 43 39 39 38 38 39
41 40 38 35 34 35 36 37 37 37 38 38 39 39 38 36 34 32 31 30 29 28 30 32 33 34 33 31 30 28 22 15 12 11 11 11 11 10 11 11 11 12 14 14 16 15 11 6 2 1 2 11 36 56 53 42 35 30 33 43 59 71 71 70 74 75 70 66 60 53 53 56 57 58 59 57 53 50 48 51 52 48 46 45 42 40 41
39 39 36 34 34 35 36 36 36 36 37 38 39 39 37 36 34 32 30 30 29 28 29 31 32 33 32 31 29 28 23 17 13 11 11 12 11 9 9 10 11 13 13 13 13 11 5 4 7 8 5 8 27 49 54 44 34 31 33 38 53 69 73 71 74 74 71 69 62 51 50 56 58 59 61 60 56 54 53 53 54 53 53 52 47 44 45
38 37 35 33 33 34 35 35 35 36 37 38 39 38 36 35 33 30 29 30 29 28 28 30 31 31 32 31 29 28 24 18 14 13 12 11 10 9 9 10 11 12 12 12 10 4 4 7 10 10 4 8 21 38 51 48 35 30 33 36 46 64 73 72 74 75 71 70 66 55 50 54 59 60 61 59 58 58 56 54 54 57 57 54 49 48 47
36 36 33 32 32 33 34 35 35 35 36 37 38 37 36 34 32 30 29 29 29 28 28 28 29 30 31 31 29 28 26 21 15 13 12 10 9 10 10 10 11 12 11 10 6 5 8 7 9 11 7 5 17 29 41 46 38 29 30 33 41 56 69 73 75 76 74 71 69 61 49 48 55 58 58 59 60 60 57 54 55 59 59 55 51 50 49
34 33 31 30 31 31 33 34 33 34 35 37 37 37 35 34 33 31 30 29 28 27 27 27 28 30 31 31 30 28 27 23 18 13 11 9 8 9 10 10 12 13 12 9 4 6 6 7 9 11 13 8 16 25 33 43 41 32 29 32 35 45 60 71 75 77 76 73 72 68 52 43 48 55 57 60 63 60 58 57 57 60 61 58 55 53 51
32 31 29 29 30 30 32 32 31 32 34 36 37 36 35 34 34 33 32 30 29 27 26 26 26 28 29 30 30 29 28 26 21 15 12 10 9 8 9 9 11 14 12 8 4 4 4 5 9 12 17 12 14 22 30 40 42 35 30 30 31 36 50 65 73 76 78 75 73 73 60 44 43 51 58 62 64 61 61 59 58 61 65 62 59 58 56
30 29 27 27 29 30 31 30 29 30 33 35 35 34 34 34 34 35 34 33 30 28 26 26 25 25 27 28 30 30 29 27 23 18 14 12 11 10 9 10 11 13 13 9 5 2 2 2 6 11 17 15 13 17 25 36 41 37 32 30 30 32 42 57 68 74 79 79 75 74 68 52 42 48 58 64 65 63 64 62 58 61 68 68 64 62 60
28 27 26 27 28 29 29 27 27 29 32 34 33 33 33 33 34 35 35 34 32 30 28 26 25 24 25 26 27 29 29 28 26 22 16 13 11 10 10 10 9 10 13 11 6 4 1 1 4 9 16 19 17 15 19 31 39 39 33 28 28 29 36 49 62 68 74 80 80 75 72 61 47 48 58 66 66 65 67 66 59 58 67 72 68 65 63
27 26 25 26 27 28 27 25 26 29 31 31 31 31 31 32 33 34 35 35 35 33 32 30 27 25 24 23 24 26 28 28 28 27 22 17 13 11 10 9 9 9 12 12 9 7 4 0 5 9 14 19 19 16 16 26 35 38 34 28 26 27 32 43 55 62 66 75 82 81 74 67 56 49 54 64 69 66 68 71 62 53 62 72 71 67 66
26 25 25 26 27 27 25 24 25 28 29 29 29 30 31 32 32 33 34 35 36 36 36 35 33 29 26 24 24 24 26 27 28 29 28 24 19 15 11 9 9 10 12 12 11 8 5 2 5 7 10 14 17 17 16 22 29 32 33 29 25 26 30 37 50 59 60 64 77 84 79 72 64 53 49 59 68 67 68 74 66 51 56 72 75 70 69
25 25 26 27 27 26 24 22 24 25 26 27 28 29 31 32 33 33 34 35 37 38 38 39 38 34 30 26 25 24 24 25 26 27 28 28 25 21 17 13 10 10 10 12 11 9 7 4 4 7 7 8 14 18 17 19 21 23 27 30 28 27 30 34 44 55 57 56 66 79 81 77 72 61 50 53 64 67 68 73 68 56 56 69 74 71 70
24 24 26 27 27 25 22 21 22 23 23 26 28 29 31 32 33 33 33 34 36 37 38 39 39 38 34 31 28 26 25 24 24 24 25 26 26 25 23 20 16 13 10 10 11 9 7 4 3 5 5 5 10 14 16 17 18 18 21 26 28 28 29 32 38 48 54 55 57 67 78 83 79 71 60 53 56 64 70 71 68 62 60 64 67 67 67
24 24 26 27 26 24 21 19 19 20 21 23 27 29 30 31 32 33 32 33 35 36 37 38 39 38 38 37 35 32 28 26 26 25 25 25 24 25 24 23 21 17 13 10 9 9 8 6 4 3 3 5 7 10 13 16 16 16 18 22 26 27 28 31 34 40 49 54 54 56 68 83 85 78 70 61 53 56 65 69 67 65 64 64 64 63 65
24 25 27 27 25 23 20 17 17 18 19 21 25 28 29 29 30 32 32 33 35 35 36 37 37 38 38 38 38 36 33 31 30 30 29 28 26 25 24 23 22 21 18 14 11 9 9 9 6 5 4 5 7 8 10 13 16 18 19 20 23 26 27 30 32 35 42 51 55 52 56 71 84 84 78 69 58 52 55 62 65 68 68 67 64 61 61
24 26 28 28 26 22 18 15 15 16 17 20 23 25 26 27 28 29 30 33 34 34 34 35 36 38 38 38 38 37 36 34 33 32 32 31 29 28 27 25 24 22 21 19 17 13 11 9 8 7 7 7 8 7 7 10 14 18 21 23 24 26 28 29 32 34 38 46 55 57 54 58 72 81 81 77 70 60 54 55 59 64 69 70 68 65 61
25 26 28 29 26 22 16 12 12 14 16 18 21 23 24 25 26 27 28 30 32 32 33 34 35 36 38 38 39 40 38 35 34 33 32 31 31 30 29 28 27 26 24 23 22 19 16 14 11 9 8 7 6 6 7 9 12 16 20 25 28 30 30 30 32 35 38 42 51 58 59 59 63 70 76 77 75 70 63 58 56 57 63 71 74 71 65
26 28 30 29 27 22 17 11 9 12 14 17 19 20 21 23 24 25 26 28 29 30 30 31 32 33 35 37 40 41 40 38 36 33 31 30 29 29 29 29 29 29 28 27 26 25 23 22 21 19 17 14 9 3 4 9 13 16 20 24 29 34 35 34 34 35 39 43 48 54 59 62 62 65 69 73 73 70 66 64 61 57 56 62 71 74 70
27 29 30 29 26 23 19 13 11 11 13 16 17 18 19 21 23 24 23 24 26 27 27 28 29 30 31 34 37 39 39 39 37 35 32 29 28 27 27 28 28 28 29 29 28 28 27 26 26 26 24 21 17 11 4 3 8 13 19 24 30 35 39 39 39 39 40 44 49 54 57 60 61 62 64 67 71 71 67 65 65 62 56 54 58 66 71
25 26 27 27 25 23 21 18 15 14 13 15 16 17 17 19 21 23 23 21 22 23 24 24 25 27 28 30 33 35 37 37 37 35 33 30 27 25 24 24 25 25 25 25 25 25 25 24 23 23 22 21 19 17 12 7 3 3 11 19 27 34 40 42 42 43 44 46 51 57 59 58 60 63 62 63 68 70 68 66 66 66 63 58 53 56 62
23 23 24 24 24 23 21 20 19 17 15 15 18 18 17 18 21 23 22 20 19 20 20 21 21 24 27 29 29 30 33 35 35 34 32 31 29 26 23 21 20 20 20 20 20 20 20 20 19 19 19 18 18 17 15 11 8 4 4 9 16 27 38 45 49 50 49 49 51 56 58 57 60 64 64 63 66 70 68 66 66 66 67 65 60 57 57
22 21 21 22 22 22 21 20 19 18 16 15 17 20 20 21 22 24 23 20 17 16 17 18 19 21 25 28 28 26 27 30 33 32 31 30 29 27 25 23 21 19 18 17 16 15 15 16 16 16 16 15 14 14 13 12 8 5 5 3 5 11 20 31 43 51 56 59 59 57 56 56 60 65 66 64 65 69 70 69 68 68 68 67 65 62 60
22 20 20 20 20 20 21 20 19 18 16 14 16 19 21 22 22 24 24 22 18 16 16 18 19 19 23 26 27 25 24 27 30 30 29 28 27 26 25 24 23 22 20 18 15 14 13 13 13 14 15 14 14 13 13 12 8 2 2 5 8 9 8 10 18 28 39 52 62 66 65 62 62 64 67 66 65 67 68 68 69 70 70 69 67 65 63
22 21 20 19 19 20 21 21 19 17 15 14 16 18 20 20 21 22 22 21 19 19 19 19 19 20 22 24 25 24 22 25 28 29 27 26 26 25 24 23 22 22 22 20 18 16 15 14 13 13 13 15 16 16 15 13 12 10 7 2 6 12 13 13 13 14 16 24 36 51 64 70 69 68 69 69 69 69 69 68 67 68 69 69 67 65 65
22 21 20 20 20 20 21 20 19 17 16 16 18 20 20 21 21 20 20 19 18 19 19 19 19 20 21 21 23 23 21 22 25 27 26 25 24 24 23 22 21 21 20 20 20 19 19 18 15 13 12 14 17 17 16 16 15 14 13 10 5 3 8 11 13 14 14 15 17 24 38 52 63 70 74 74 73 73 72 71 69 68 68 68 66 64 65
21 20 20 20 20 19 18 17 17 17 18 21 22 22 21 21 20 19 19 18 17 17 18 18 19 19 19 20 21 21 20 20 23 25 25 23 23 24 23 22 21 20 19 19 19 19 19 19 18 16 14 14 14 13 13 15 16 15 13 12 9 4 1 2 4 6 11 16 18 18 19 25 37 53 67 76 78 78 77 76 74 72 71 70 68 65 64
21 21 21 20 18 16 15 16 17 19 22 24 23 21 19 19 18 17 18 18 18 18 18 19 18 18 18 19 20 20 20 20 22 23 23 23 22 23 23 22 21 19 18 17 17 16 17 17 17 17 16 14 12 10 10 12 14 15 14 12 10 7 5 3 2 2 4 9 14 17 18 17 20 30 46 62 72 78 80 81 81 79 76 75 73 72 69
22 22 20 19 17 17 18 20 22 23 23 22 20 19 18 18 17 17 17 18 19 19 18 18 19 19 19 19 19 19 20 21 22 23 24 23 22 21 22 21 20 19 18 17 15 14 15 16 16 16 15 15 14 13 13 12 12 13 14 14 12 9 7 5 5 4 5 5 7 11 15 17 18 21 29 43 57 68 75 80 84 86 85 83 80 78 77
22 20 18 17 18 20 21 22 22 21 20 19 19 19 19 19 19 19 19 19 19 19 19 19 19 19 20 20 20 20 21 21 22 23 23 22 21 21 21 21 19 19 19 18 16 15 16 17 15 14 14 14 15 16 16 16 14 13 13 14 14 12 9 8 8 9 9 8 6 7 9 13 17 19 21 27 38 51 62 71 78 82 85 86 86 86 85
20 20 19 18 19 20 19 18 18 18 17 18 19 19 19 20 20 21 20 20 20 20 20 20 20 20 21 21 21 21 22 22 21 22 23 22 22 22 22 21 20 21 20 19 18 18 19 18 16 14 13 14 15 16 16 17 16 15 13 13 13 14 13 11 9 9 11 10 9 7 6 7 10 15 19 21 25 32 42 54 64 72 76 78 81 84 87
19 20 20 20 19 18 17 16 16 16 16 17 18 19 19 20 21 21 20 20 20 20 20 20 20 20 20 21 21 22 22 22 22 23 24 23 23 23 23 22 21 21 21 21 22 22 21 19 16 15 14 14 15 15 15 14 15 16 15 14 13 14 14 14 13 11 11 10 10 10 9 9 9 11 15 20 22 24 27 33 43 53 63 68 72 76 79
19 20 20 19 18 17 16 16 15 16 16 17 18 18 19 20 20 20 20 20 20 20 20 20 20 20 20 21 21 21 22 22 22 22 23 24 24 25 25 24 22 21 21 22 24 23 22 19 17 16 15 15 15 16 15 14 14 15 15 15 15 14 14 15 16 16 15 13 11 10 10 10 10 11 11 15 20 23 24 25 28 34 42 52 60 67 71
20 21 20 19 18 17 16 16 16 16 16 17 18 18 19 20 20 20 20 20 21 21 21 21 22 22 22 22 21 21 21 22 21 22 23 24 25 26 26 24 23 22 21 22 23 23 22 21 19 18 17 16 15 16 16 15 15 14 14 15 15 14 13 13 13 15 17 17 15 11 8 7 7 8 8 9 13 17 20 22 24 26 29 35 44 54 61
21 21 21 20 19 19 17 16 16 17 17 17 18 18 19 20 20 20 20 21 21 21 22 22 22 22 22 22 22 21 22 22 22 22 23 24 25 25 25 25 25 24 23 22 22 23 23 22 21 20 19 18 17 16 16 16 16 15 13 13 13 14 13 12 11 11 14 16 16 14 10 6 6 5 6 7 10 13 16 18 21 23 25 28 33 40 49
21 21 20 20 20 20 19 18 17 17 17 18 18 19 19 19 20 20 21 21 21 21 22 22 23 22 22 21 21 21 21 22 22 23 23 24 24 25 26 26 26 26 25 24 24 24 23 23 22 22 21 20 19 18 17 16 16 16 15 13 12 12 13 13 12 11 10 11 13 14 13 8 6 7 6 6 7 10 14 16 18 20 22 23 25 29 35
22 22 21 20 19 19 20 20 19 18 18 19 19 19 19 19 20 20 20 21 21 22 22 22 22 22 22 21 20 20 21 21 22 22 23 23 23 24 25 26 26 26 26 26 25 25 24 24 23 22 22 22 21 19 18 17 16 16 16 14 13 12 12 13 13 12 10 8 7 9 11 9 7 8 7 6 5 6 9 12 14 17 19 21 21 22 26
21 21 21 20 19 18 19 19 19 19 19 19 19 19 19 19 20 20 20 21 21 22 23 23 23 23 22 21 20 20 20 21 21 21 21 21 21 23 23 24 25 26 27 27 26 25 25 25 24 23 22 22 22 21 20 19 18 17 17 16 15 14 12 12 12 12 11 9 6 5 6 7 7 7 8 8 7 6 8 8 9 13 16 18 19 20 23
20 19 18 18 18 18 19 19 19 18 18 17 17 17 18 19 20 20 21 21 21 22 22 23 23 23 22 22 21 20 19 19 19 19 19 20 21 22 23 24 25 25 26 27 27 26 26 26 25 23 22 22 22 21 21 20 19 18 17 16 16 16 14 13 12 12 11 10 8 5 2 3 4 5 7 8 7 8 10 9 8 10 14 16 16 17 21
19 18 16 16 16 17 16 16 17 17 17 16 15 15 17 18 19 20 21 21 21 21 21 21 21 21 20 20 20 20 20 19 19 18 18 20 22 23 24 25 26 26 26 26 27 27 26 26 26 24 23 22 21 21 21 21 20 19 18 16 16 16 15 14 13 13 12 11 9 7 4 2 2 4 6 6 5 8 11 11 10 10 13 14 15 16 19
19 18 17 15 15 16 16 15 15 16 16 15 14 14 16 18 19 20 20 20 20 20 20 21 21 20 18 18 19 20 20 21 20 20 21 23 25 26 26 27 27 27 26 26 27 27 27 27 26 25 24 23 21 20 20 20 21 20 19 18 16 16 15 15 14 13 13 12 11 9 7 5 2 4 6 8 9 9 10 11 12 13 13 14 15 17 20
Wind_Direction
345 346 345 343 341 339 337 334 333 333 333 332 330 329 331 335 333 330 330 329 325 323 322 319 318 321 323 324 322 316 310 303 296 294 292 285 276 265 258 258 255 253 257 262 267 269 261 241 225 213 201 195 194 194 196 198 199 198 198 200 202 202 205 205 201 204 207 202 200 199 198 207 217 219 219 219 220 221 222 224 226 226 225 225 228 228 219
347 346 343 341 340 338 336 334 334 336 335 333 332 333 335 338 333 326 325 323 321 323 324 323 323 324 326 326 323 317 310 303 298 294 290 279 266 256 257 258 257 257 260 266 272 274 270 253 234 222 211 200 192 191 194 197 198 198 197 198 201 200 202 202 199 199 202 199 198 198 195 200 212 217 218 218 221 224 224 224 225 226 224 222 225 225 217
345 343 342 340 340 338 336 335 336 338 337 334 333 335 337 337 332 325 321 319 323 327 328 327 325 324 326 327 325 320 310 301 297 292 283 271 260 256 260 260 259 260 263 270 277 280 279 267 244 229 221 209 193 186 190 195 197 199 197 197 199 199 199 200 196 193 195 193 193 195 194 195 204 213 217 217 219 222 222 221 222 221 218 215 220 220 209
343 342 341 340 339 338 336 336 337 338 337 333 332 335 336 334 332 327 323 323 328 332 331 330 328 327 328 329 328 323 312 301 296 287 272 264 263 262 263 263 263 264 266 274 282 283 285 281 257 236 227 215 197 184 185 191 195 199 198 196 197 197 196 197 194 189 190 190 190 193 194 192 195 203 210 214 218 220 220 221 222 221 217 214 216 212 197
342 341 341 340 339 338 337 337 338 338 337 333 331 334 334 332 333 332 329 330 334 336 336 334 331 331 331 331 332 327 314 304 299 285 269 269 275 272 268 266 265 268 271 278 285 283 281 287 274 245 230 219 203 186 181 186 192 198 199 196 196 196 196 195 192 187 188 188 188 192 195 193 193 197 202 208 213 216 218 220 221 220 218 215 214 206 192
341 341 341 339 339 338 337 338 338 337 336 333 330 332 334 332 333 335 333 332 337 340 340 337 333 334 334 333 335 332 317 308 303 286 272 277 281 278 273 270 267 271 277 281 285 284 278 283 283 253 233 220 206 191 179 181 188 195 198 197 195 195 195 194 189 185 184 185 186 191 196 195 196 198 199 201 207 211 216 219 218 219 220 215 212 206 192
342 341 341 340 339 338 339 338 338 337 336 334 331 332 334 332 332 338 338 335 338 343 344 341 337 336 336 336 338 335 321 313 312 297 283 282 280 277 273 272 271 274 281 283 284 285 281 282 284 256 234 220 207 195 183 179 184 191 196 197 196 196 195 193 187 180 179 180 184 190 195 197 200 201 199 199 202 206 212 217 214 216 220 216 214 211 197
343 342 341 340 339 339 340 339 339 339 337 335 334 333 334 332 331 339 342 338 339 344 346 344 340 338 338 339 341 336 319 311 317 309 301 294 287 281 274 274 275 275 280 282 282 287 286 287 289 258 234 220 208 199 188 178 179 189 194 196 197 197 196 192 185 178 176 179 183 189 194 197 200 201 199 200 201 202 207 212 212 212 217 215 212 211 202
344 342 341 340 340 340 341 341 341 342 340 338 337 335 335 335 334 339 343 338 339 345 347 345 342 340 340 342 343 338 315 297 304 297 292 292 289 282 274 275 279 277 278 280 282 288 288 290 295 265 236 224 211 202 191 177 174 185 193 196 197 198 197 192 184 177 175 178 182 187 191 195 198 198 198 200 203 202 201 203 205 204 207 211 206 203 207
345 343 341 341 341 341 342 343 344 345 343 342 341 339 339 340 338 341 343 339 342 347 346 345 344 343 343 344 345 341 317 288 289 283 279 286 287 281 273 274 277 277 279 281 282 288 289 292 295 271 243 229 215 204 192 180 172 176 190 197 198 198 197 191 183 178 176 178 183 185 185 190 195 196 196 199 202 202 198 195 196 195 195 201 201 199 207
345 344 343 342 343 343 344 345 346 346 345 344 345 345 347 345 342 345 346 343 347 349 345 346 347 346 347 346 346 347 328 295 290 288 280 280 281 279 275 276 278 280 284 284 285 292 292 293 296 277 252 234 217 205 193 181 170 167 183 195 197 198 197 191 184 181 178 181 186 186 183 187 191 193 195 198 199 200 198 195 192 188 184 190 201 203 206
345 345 344 344 345 346 347 347 347 347 347 348 350 351 352 349 345 347 349 348 349 349 346 349 350 349 350 348 348 351 342 316 306 305 292 281 280 280 279 280 281 283 290 290 292 297 295 296 303 284 260 238 219 207 194 182 170 159 173 188 194 197 196 191 188 185 181 182 186 183 182 185 187 190 194 196 195 195 196 194 190 185 181 189 202 205 205
345 345 346 347 349 349 349 349 349 350 350 352 354 354 354 352 348 349 351 350 349 349 350 352 352 352 352 351 351 354 350 335 323 320 310 299 293 287 287 291 290 289 294 297 299 302 298 295 300 283 268 242 220 208 195 185 177 158 160 178 188 195 196 193 191 189 184 183 183 179 179 183 184 187 191 193 193 192 190 190 188 184 185 194 203 206 205
344 346 347 350 351 351 352 352 352 353 354 355 356 356 355 353 350 350 351 351 350 351 353 355 355 355 355 354 355 357 356 345 333 330 326 317 308 300 300 308 309 304 305 306 307 311 311 312 329 175 246 236 220 210 197 188 184 166 154 165 180 192 197 194 194 194 190 187 183 176 176 179 179 183 187 189 192 190 187 188 186 184 189 198 204 206 208
343 346 349 351 352 353 354 355 354 355 358 359 359 358 356 353 352 352 351 351 353 354 355 358 359 358 358 358 358 0 0 352 342 340 336 324 317 315 315 318 318 317 319 321 321 326 350 67 94 113 137 204 217 211 200 192 189 177 159 157 171 187 196 196 195 197 194 188 183 177 175 175 176 180 185 187 191 190 186 186 186 186 194 200 202 205 208
344 347 349 351 353 354 355 356 356 359 1 1 0 359 357 355 355 355 353 352 354 356 357 360 3 3 3 3 3 4 5 359 350 347 346 337 327 328 330 327 325 325 329 334 339 6 95 105 104 105 125 201 210 211 204 197 194 184 167 156 164 181 193 196 196 198 197 191 187 183 176 171 172 178 182 186 189 189 185 185 187 192 198 202 202 205 204
345 348 349 351 353 354 356 357 359 4 5 4 2 1 359 358 360 0 359 356 355 357 360 2 5 8 9 8 7 7 7 6 1 356 354 349 337 335 338 336 337 341 345 353 11 124 123 87 84 89 78 176 202 210 207 200 197 191 175 161 161 174 188 195 196 198 199 195 191 188 177 168 171 176 179 184 187 186 185 187 190 194 200 202 203 205 200
346 348 349 351 353 355 356 358 4 9 9 6 6 4 2 3 5 6 5 2 359 360 1 4 8 11 13 14 12 11 9 8 8 6 4 360 348 345 346 342 347 354 359 17 60 163 145 61 56 87 89 123 189 204 208 202 199 195 183 169 162 170 183 192 195 198 200 198 194 190 183 171 171 176 178 181 184 184 186 191 192 193 198 201 202 204 200
347 348 349 352 355 356 358 2 8 13 12 10 10 8 6 8 10 12 12 9 7 5 3 5 9 11 14 17 17 16 13 11 10 9 8 8 0 353 354 350 354 2 7 35 84 191 195 56 54 86 96 116 180 200 208 205 199 199 194 181 168 167 178 188 194 197 200 201 198 193 189 179 172 175 179 180 182 184 186 191 194 193 196 199 201 203 201
348 348 350 353 357 359 1 6 12 16 15 13 13 12 11 13 15 17 17 14 13 11 7 6 8 8 13 18 20 21 19 15 15 12 7 8 5 359 2 0 3 12 18 36 82 175 258 13 45 76 94 114 158 190 208 208 202 203 205 193 177 168 172 183 193 197 199 203 202 197 194 188 174 174 179 180 182 185 185 189 195 194 194 197 200 202 202
350 350 352 356 359 1 4 11 17 19 18 17 16 15 16 19 22 22 21 18 18 17 12 9 8 8 12 18 21 24 24 21 21 18 11 11 10 5 7 9 12 23 24 30 69 121 198 327 18 55 87 112 135 162 197 208 206 208 210 201 189 180 172 177 189 196 198 201 204 202 199 195 185 178 179 180 181 185 185 188 192 191 191 196 198 200 202
352 352 355 360 1 2 8 16 21 22 21 19 19 19 22 27 29 28 26 25 24 24 20 16 14 12 13 16 19 25 28 28 27 25 20 17 13 9 11 16 20 27 26 33 64 109 148 220 3 36 81 112 131 150 183 205 210 212 214 210 203 196 182 174 183 193 197 199 203 204 203 202 197 186 179 179 182 184 186 189 190 185 187 194 198 199 203
354 355 1 4 3 4 12 21 24 24 23 22 22 24 29 33 35 34 32 31 31 31 28 25 23 20 17 17 18 24 29 31 32 31 28 25 21 17 15 15 17 21 26 36 59 91 122 93 16 32 76 110 130 148 178 202 211 216 220 219 212 206 193 178 180 190 195 197 201 205 207 207 204 195 182 179 182 183 184 189 190 183 183 192 198 200 202
356 0 6 6 4 7 15 25 26 24 24 24 24 28 32 36 37 37 36 35 35 35 34 32 30 26 21 18 18 20 25 30 34 34 33 32 30 26 23 20 16 16 23 36 55 82 106 98 47 41 58 98 125 140 163 191 205 215 223 224 219 212 202 188 181 187 193 196 199 204 208 209 207 203 192 182 182 183 184 188 190 186 182 190 197 199 201
359 5 9 7 5 8 17 25 25 22 23 24 25 28 33 36 37 36 36 36 36 36 37 36 34 32 28 26 24 21 22 27 32 34 34 36 35 33 31 28 24 20 23 36 51 69 87 96 70 51 60 102 130 141 159 181 196 210 221 225 225 219 208 198 189 187 191 196 199 203 208 210 209 207 203 193 185 184 185 187 191 191 189 192 196 199 201
3 8 11 7 4 6 15 22 18 17 21 24 26 28 31 34 36 37 36 37 37 37 37 38 38 37 35 34 32 30 28 29 31 32 33 35 36 36 36 34 32 31 32 36 44 55 67 75 66 49 86 137 149 153 166 182 198 212 219 224 228 225 215 207 201 193 193 197 200 203 208 211 210 210 210 205 195 188 188 189 191 192 194 196 198 200 202
6 10 11 8 2 2 10 15 10 12 20 26 27 27 28 30 34 36 37 38 39 38 38 40 41 40 39 38 38 37 37 36 36 36 36 36 36 36 36 36 36 37 37 39 45 57 68 75 79 76 96 142 164 168 176 192 209 221 227 230 232 230 223 217 211 203 196 197 201 203 207 210 212 213 214 213 207 199 194 194 194 193 194 196 197 197 199
6 9 10 7 0 357 1 6 7 11 20 27 28 25 22 24 29 33 35 38 40 40 40 41 42 43 42 42 42 41 41 40 41 42 42 42 42 42 41 40 39 39 39 39 42 49 56 66 86 97 99 126 159 172 187 206 220 230 237 239 239 236 231 225 218 209 201 201 204 205 206 209 212 214 216 217 217 214 207 201 198 196 196 198 199 197 197
6 7 7 5 358 352 350 357 10 16 21 28 29 24 18 19 23 26 30 33 36 39 40 40 41 43 43 43 43 43 43 42 42 44 45 47 49 51 52 53 52 50 49 47 46 48 50 54 67 81 84 99 139 177 208 225 236 242 244 245 246 244 240 233 224 215 208 206 207 207 208 211 214 216 216 217 219 222 220 216 212 206 200 200 201 201 200
9 8 6 2 357 352 349 355 17 27 26 28 30 23 16 16 19 22 25 27 30 33 36 37 38 38 40 41 42 42 43 42 41 43 45 47 50 54 56 59 60 59 60 59 57 56 56 56 59 63 64 66 72 89 215 227 235 242 246 250 251 248 244 239 231 221 215 212 211 210 210 212 216 220 220 220 221 224 226 226 226 222 213 206 205 205 204
10 8 4 0 357 354 351 355 13 26 26 27 28 23 17 17 18 19 20 22 24 27 31 34 34 33 34 36 38 39 40 40 40 41 42 45 49 53 56 59 62 62 63 64 64 63 62 62 61 61 60 59 56 49 29 248 234 237 244 251 254 251 247 243 235 226 220 218 217 215 213 213 216 220 223 224 226 229 230 230 230 230 226 218 212 209 208
7 5 2 359 357 355 353 355 1 8 13 16 17 17 19 20 17 16 15 15 17 21 25 29 31 30 30 31 33 35 36 36 37 38 40 42 45 48 51 55 60 62 63 64 65 65 65 64 63 61 58 54 49 41 28 9 349 249 238 243 249 251 249 246 240 232 226 223 222 219 215 215 217 220 222 224 227 230 232 233 233 233 232 229 225 219 214
1 0 358 357 356 356 356 357 358 360 4 9 11 16 23 22 15 12 12 11 10 14 19 24 27 28 28 27 27 28 30 30 30 31 34 37 41 43 45 46 48 50 53 55 58 61 64 63 59 56 54 52 49 44 38 28 15 346 252 228 235 242 244 244 243 239 234 231 229 224 219 219 220 220 220 223 227 230 232 233 233 234 234 234 233 230 225
353 354 354 353 353 353 354 357 359 1 5 12 15 17 19 17 12 9 9 7 3 4 13 20 22 24 25 24 22 21 21 21 21 22 25 29 34 38 40 40 38 36 37 38 39 45 52 53 50 47 47 49 53 58 56 46 24 329 284 246 218 231 236 238 240 240 238 237 235 229 225 224 224 222 221 222 225 227 230 232 233 233 233 233 234 233 230
349 350 349 349 350 350 350 353 356 359 4 11 13 12 11 11 11 10 9 8 4 3 12 22 25 22 20 18 18 17 14 12 14 16 18 21 26 29 33 34 34 33 31 28 26 29 34 34 35 36 33 31 39 54 62 59 54 42 261 240 226 220 217 221 229 234 236 237 237 235 232 230 227 224 222 222 223 223 225 228 230 231 231 230 230 230 228
349 350 349 348 349 349 348 348 350 355 4 11 12 9 7 8 9 8 8 9 11 11 16 22 22 17 13 11 15 17 13 8 9 12 13 16 20 22 25 27 28 29 29 26 23 23 23 21 24 29 25 18 20 29 34 33 34 36 30 357 221 215 216 218 220 224 230 235 237 237 236 235 232 229 227 225 224 223 223 223 224 227 227 226 225 226 224
352 354 354 353 352 349 346 345 347 354 5 15 18 15 11 8 6 4 3 5 8 11 14 13 10 9 9 10 14 18 13 5 5 7 9 13 16 17 17 19 20 22 23 22 20 20 19 17 16 19 23 24 24 23 20 16 15 15 14 17 29 185 207 218 223 225 227 228 230 234 235 235 233 232 231 230 228 226 225 223 222 222 222 221 220 222 221
359 1 1 358 354 350 347 347 352 2 12 17 19 17 12 7 4 2 4 6 8 10 10 8 6 8 11 12 13 14 10 3 3 6 8 10 12 12 12 12 12 13 15 15 15 15 15 13 10 10 16 25 28 23 19 16 13 10 7 7 10 11 320 247 240 233 227 225 226 231 236 234 231 229 230 231 231 231 229 226 224 223 222 221 220 220 219
8 8 5 0 357 357 358 1 8 17 20 18 15 13 10 6 5 4 7 10 12 12 12 11 10 10 12 12 10 8 6 5 6 7 8 8 9 11 10 7 5 5 5 4 4 6 7 6 5 6 11 20 24 22 22 22 16 10 6 3 359 354 344 323 297 274 242 230 229 232 235 235 230 225 225 227 229 231 231 231 229 227 226 224 223 222 221
14 11 7 4 7 11 15 17 19 23 23 20 17 16 15 13 13 13 13 15 16 16 17 17 15 15 15 14 11 9 8 9 10 9 8 8 9 9 6 2 359 358 357 355 355 358 0 359 356 355 1 10 17 20 22 24 19 11 6 4 0 350 332 313 297 292 285 269 254 245 238 233 229 225 222 223 224 226 228 230 231 231 231 230 228 226 225
17 13 8 10 16 20 21 22 23 23 23 23 23 23 21 20 21 22 22 22 21 21 22 23 20 18 18 17 15 13 13 13 13 12 10 9 7 3 360 358 357 356 354 353 353 356 358 356 348 343 348 1 10 14 17 17 15 10 5 4 3 358 344 322 301 293 295 298 296 283 260 244 235 229 224 222 222 223 224 225 226 228 230 231 231 232 231
15 11 6 10 18 21 20 21 22 22 21 22 23 21 20 20 21 22 23 23 21 20 21 22 19 17 17 16 15 15 15 13 13 13 12 9 6 2 360 359 358 356 353 353 356 359 357 352 344 340 345 355 2 7 9 10 10 10 8 3 359 356 353 347 331 312 304 302 302 306 306 286 260 242 231 225 223 222 223 224 224 224 225 226 227 230 232
11 8 5 8 13 15 14 15 17 16 17 18 19 19 18 18 17 17 18 18 18 18 19 17 14 13 13 13 12 13 13 13 12 11 11 9 7 5 4 2 1 358 355 355 358 358 354 349 346 345 349 356 359 360 359 360 1 4 7 8 5 357 351 347 343 335 324 311 298 293 298 304 299 275 247 233 228 225 223 223 224 224 224 223 223 224 227
5 6 4 4 5 4 3 4 7 10 13 13 13 14 15 14 13 12 12 12 12 12 13 12 10 8 8 9 9 9 10 10 10 9 8 7 7 7 6 5 3 0 357 356 354 351 349 350 353 355 357 359 359 356 354 354 356 357 358 1 5 6 0 350 341 335 333 329 321 308 297 292 295 292 269 242 233 230 228 225 223 223 224 225 224 223 223
357 360 358 357 356 355 355 357 360 5 8 8 7 9 11 9 7 6 7 7 5 3 4 5 4 2 2 3 4 4 5 6 5 5 5 5 6 6 5 3 1 0 358 354 349 347 347 351 357 1 2 360 357 355 352 351 353 354 354 353 355 359 2 358 348 338 335 336 338 336 319 287 278 292 287 255 236 232 231 227 224 222 222 223 224 224 224
353 354 351 349 348 349 351 354 356 359 2 3 4 6 6 4 1 0 1 2 1 358 357 358 357 355 357 358 357 358 360 360 359 0 2 4 5 4 2 0 0 0 358 355 351 350 350 352 355 359 359 357 356 356 353 349 349 350 350 347 345 346 351 357 359 352 342 337 339 343 339 309 267 272 288 271 247 239 235 230 226 224 224 224 225 225 225
349 348 347 347 346 345 347 352 354 355 356 358 0 1 359 358 357 357 358 359 357 355 355 354 352 350 352 353 352 352 355 355 354 356 359 360 0 359 359 360 360 358 356 354 354 354 353 353 354 354 354 353 354 354 351 348 347 346 344 344 342 340 339 344 352 360 358 346 339 342 343 325 267 244 259 276 262 242 234 229 226 225 225 224 224 226 226
345 343 345 348 346 343 345 349 351 352 352 353 354 354 351 350 351 351 352 353 353 352 352 352 349 348 349 349 349 349 350 351 352 353 354 354 354 355 356 357 357 355 354 354 354 353 352 352 352 352 350 348 348 348 348 347 346 342 339 340 343 342 338 336 337 346 358 1 347 335 331 316 273 237 240 264 261 229 218 220 224 224 223 220 219 219 220
344 342 344 347 347 346 348 350 350 349 348 347 346 345 344 343 343 345 346 348 348 348 348 347 347 347 347 347 347 348 348 348 349 350 349 349 350 351 352 353 353 352 351 351 350 349 348 348 350 350 347 344 342 342 342 344 345 342 338 337 337 338 339 337 331 330 339 351 357 344 320 303 278 248 245 260 262 234 209 207 215 219 219 218 216 214 213
346 345 347 347 347 348 349 349 348 346 344 341 339 338 338 337 337 339 341 343 344 343 343 344 346 346 345 345 346 348 347 345 345 345 345 345 347 349 349 349 349 348 348 347 346 344 343 343 344 345 343 341 339 338 337 337 338 337 335 335 334 333 336 337 333 326 325 332 341 347 327 284 267 259 264 273 268 243 229 229 229 219 213 211 212 211 209
350 351 352 350 349 349 348 345 343 342 339 336 335 336 336 336 336 336 338 340 340 340 341 343 344 343 343 343 344 344 341 339 338 339 341 342 343 343 342 342 341 341 342 343 342 340 338 337 337 337 336 335 335 334 331 330 330 330 330 331 330 329 329 332 332 328 322 320 323 329 329 300 239 241 253 257 236 218 222 232 236 225 213 207 207 208 206
353 354 352 349 348 349 347 343 341 340 338 338 339 338 337 337 338 338 338 338 339 339 340 342 342 342 342 342 340 337 336 335 333 332 331 332 333 333 333 333 333 333 335 337 337 336 334 331 330 329 329 329 331 330 327 324 323 323 324 326 327 326 325 325 327 327 323 318 314 314 315 311 274 232 231 229 218 207 206 211 217 224 229 227 221 215 211
Height
5759 5756 5753 5750 5747 5743 5740 5737 5733 5730 5726 5722 5717 5712 5708 5704 5699 5696 5694 5692 5690 5687 5683 5680 5677 5674 5672 5668 5664 5660 5657 5654 5651 5648 5647 5645 5644 5645 5645 5644 5644 5644 5643 5643 5643 5640 5638 5641 5645 5648 5651 5655 5659 5663 5667 5671 5676 5680 5685 5690 5695 5702 5709 5717 5727 5734 5741 5749 5752 5754 5759 5768 5772 5775 5779 5783 5785 5789 5793 5797 5800 5803 5806 5809 5811 5812 5817
5758 5754 5751 5748 5744 5741 5737 5734 5730 5726 5722 5717 5713 5709 5705 5702 5697 5693 5690 5688 5686 5684 5681 5677 5673 5670 5667 5663 5659 5654 5649 5646 5644 5643 5641 5640 5639 5640 5640 5639 5639 5639 5639 5639 5638 5637 5634 5635 5637 5639 5642 5648 5654 5659 5663 5667 5671 5675 5680 5684 5689 5696 5703 5712 5722 5729 5737 5744 5748 5750 5754 5760 5765 5770 5775 5779 5783 5787 5791 5794 5798 5800 5803 5806 5807 5809 5815
5756 5752 5749 5745 5742 5738 5734 5731 5727 5723 5718 5713 5709 5705 5702 5699 5695 5690 5687 5685 5683 5680 5677 5674 5670 5667 5663 5659 5654 5649 5644 5640 5638 5637 5636 5635 5635 5636 5636 5635 5635 5635 5635 5634 5634 5634 5630 5627 5629 5632 5634 5640 5648 5654 5658 5663 5667 5670 5674 5678 5683 5690 5697 5706 5715 5723 5729 5736 5741 5746 5749 5753 5759 5766 5771 5775 5779 5781 5785 5789 5791 5794 5799 5802 5803 5806 5813
5754 5751 5747 5743 5739 5735 5731 5727 5723 5719 5715 5710 5705 5702 5699 5696 5693 5689 5684 5681 5679 5676 5673 5669 5666 5663 5660 5655 5650 5645 5640 5636 5633 5632 5632 5631 5631 5632 5632 5632 5632 5632 5632 5631 5630 5630 5627 5623 5623 5625 5628 5634 5642 5647 5653 5658 5662 5664 5669 5674 5678 5685 5692 5700 5708 5716 5722 5729 5736 5740 5743 5746 5751 5758 5765 5770 5774 5777 5782 5785 5787 5791 5796 5799 5800 5805 5811
5752 5748 5745 5740 5737 5733 5728 5724 5720 5716 5712 5707 5702 5699 5696 5692 5689 5686 5681 5678 5675 5671 5668 5665 5661 5658 5655 5650 5645 5640 5635 5632 5630 5629 5629 5628 5628 5629 5629 5629 5629 5628 5628 5627 5626 5625 5624 5621 5620 5620 5622 5628 5636 5641 5647 5652 5655 5659 5664 5670 5675 5681 5687 5693 5702 5710 5718 5725 5732 5736 5739 5742 5747 5751 5757 5765 5770 5774 5778 5780 5784 5790 5793 5796 5800 5804 5808
5750 5746 5742 5738 5734 5730 5726 5721 5717 5713 5708 5704 5699 5696 5693 5689 5685 5682 5678 5674 5672 5668 5664 5661 5657 5653 5649 5644 5640 5636 5631 5629 5628 5627 5626 5626 5626 5626 5626 5626 5626 5625 5624 5623 5622 5621 5619 5619 5617 5615 5617 5623 5631 5636 5642 5646 5650 5654 5660 5667 5673 5677 5681 5688 5698 5707 5716 5723 5728 5732 5735 5741 5744 5747 5751 5759 5766 5770 5774 5778 5783 5788 5790 5794 5799 5803 5806
5748 5744 5740 5736 5731 5727 5723 5719 5714 5710 5705 5701 5697 5693 5690 5686 5682 5680 5675 5671 5668 5665 5662 5658 5654 5649 5645 5640 5635 5631 5628 5626 5626 5625 5624 5624 5624 5623 5623 5623 5623 5622 5620 5619 5618 5617 5615 5615 5615 5612 5613 5619 5626 5631 5636 5641 5645 5650 5656 5664 5671 5674 5677 5685 5696 5706 5714 5719 5723 5727 5731 5736 5741 5745 5750 5757 5763 5768 5772 5777 5782 5785 5789 5793 5797 5800 5804
5746 5741 5737 5733 5729 5724 5720 5716 5711 5707 5703 5698 5694 5690 5687 5684 5680 5677 5673 5668 5664 5662 5659 5655 5651 5647 5642 5637 5632 5628 5625 5624 5624 5623 5622 5622 5622 5621 5620 5619 5619 5618 5617 5616 5615 5613 5611 5611 5611 5610 5611 5616 5622 5627 5632 5636 5641 5646 5653 5661 5667 5671 5675 5684 5694 5703 5710 5715 5720 5724 5728 5733 5739 5744 5750 5756 5762 5767 5772 5776 5780 5784 5787 5791 5794 5797 5800
5743 5739 5735 5730 5726 5722 5718 5713 5709 5705 5700 5696 5692 5688 5685 5681 5677 5674 5671 5667 5662 5659 5656 5653 5648 5644 5639 5634 5630 5626 5623 5622 5621 5621 5620 5619 5618 5618 5617 5616 5616 5615 5614 5613 5612 5610 5608 5607 5607 5607 5608 5611 5616 5622 5627 5632 5637 5642 5649 5656 5663 5669 5675 5683 5692 5699 5705 5711 5717 5722 5727 5732 5735 5740 5745 5752 5757 5762 5767 5773 5777 5780 5784 5788 5791 5794 5797
5741 5737 5732 5728 5724 5720 5715 5711 5707 5703 5698 5694 5690 5686 5682 5679 5675 5672 5669 5665 5661 5657 5654 5650 5646 5642 5637 5632 5628 5624 5621 5619 5618 5618 5618 5616 5615 5615 5615 5614 5614 5613 5612 5611 5610 5608 5606 5605 5604 5604 5604 5606 5611 5618 5623 5628 5633 5638 5645 5652 5660 5667 5674 5682 5689 5695 5700 5708 5714 5719 5724 5727 5730 5734 5740 5745 5751 5757 5762 5766 5770 5774 5780 5785 5789 5792 5794
5739 5735 5730 5726 5722 5718 5713 5709 5705 5701 5696 5692 5688 5684 5680 5677 5673 5670 5667 5663 5660 5656 5652 5648 5644 5639 5635 5630 5626 5622 5619 5617 5616 5616 5616 5614 5612 5612 5612 5612 5612 5611 5610 5609 5608 5606 5605 5603 5602 5601 5601 5603 5608 5615 5621 5627 5630 5635 5641 5649 5657 5664 5672 5680 5685 5690 5697 5704 5710 5714 5718 5720 5724 5730 5734 5739 5745 5752 5757 5761 5766 5772 5778 5782 5786 5788 5790
5737 5733 5729 5724 5720 5716 5712 5708 5703 5699 5695 5691 5686 5682 5678 5674 5671 5668 5665 5661 5658 5654 5651 5647 5642 5638 5633 5628 5624 5620 5617 5615 5614 5614 5614 5613 5611 5611 5610 5610 5609 5609 5608 5607 5605 5604 5602 5601 5600 5599 5600 5601 5605 5612 5620 5625 5628 5633 5639 5645 5653 5661 5669 5677 5682 5685 5694 5701 5704 5707 5710 5714 5718 5724 5729 5735 5742 5747 5753 5759 5766 5771 5775 5778 5780 5782 5785
5736 5731 5727 5723 5719 5715 5711 5706 5702 5698 5693 5689 5685 5681 5677 5673 5669 5666 5663 5660 5656 5653 5649 5645 5641 5636 5632 5627 5623 5619 5616 5614 5613 5613 5612 5611 5610 5609 5608 5608 5607 5607 5606 5605 5603 5602 5601 5599 5598 5599 5600 5601 5605 5611 5619 5624 5626 5631 5637 5642 5649 5657 5666 5674 5678 5682 5690 5696 5698 5700 5705 5710 5714 5720 5726 5733 5738 5743 5750 5757 5764 5769 5772 5774 5775 5778 5781
5734 5730 5726 5721 5717 5713 5709 5705 5701 5697 5692 5688 5684 5680 5676 5672 5668 5665 5662 5659 5655 5651 5648 5644 5640 5635 5631 5627 5622 5619 5616 5613 5612 5611 5610 5609 5609 5608 5607 5606 5606 5605 5604 5603 5601 5600 5599 5598 5598 5599 5601 5602 5605 5610 5617 5623 5626 5630 5635 5638 5644 5653 5661 5669 5675 5678 5683 5690 5694 5699 5704 5706 5709 5715 5723 5729 5734 5740 5746 5752 5758 5763 5765 5767 5770 5774 5777
5733 5729 5725 5720 5717 5713 5708 5704 5700 5696 5692 5687 5683 5679 5675 5671 5667 5664 5660 5657 5654 5651 5647 5644 5640 5635 5630 5626 5623 5619 5616 5613 5611 5611 5610 5608 5608 5607 5606 5606 5605 5604 5603 5601 5600 5598 5598 5598 5598 5599 5601 5603 5605 5609 5616 5622 5625 5628 5632 5634 5639 5649 5656 5664 5671 5675 5679 5686 5691 5696 5700 5701 5704 5710 5717 5724 5730 5736 5741 5747 5753 5757 5758 5761 5766 5770 5774
5732 5728 5724 5720 5716 5712 5708 5704 5700 5696 5692 5687 5683 5679 5675 5671 5667 5664 5660 5656 5653 5650 5647 5643 5640 5636 5631 5627 5623 5619 5616 5613 5611 5610 5609 5608 5607 5606 5606 5605 5604 5603 5601 5600 5599 5598 5598 5598 5599 5601 5601 5603 5606 5609 5614 5620 5623 5626 5630 5633 5636 5644 5653 5661 5669 5673 5678 5683 5687 5690 5694 5695 5698 5706 5713 5719 5726 5732 5738 5745 5749 5752 5754 5759 5764 5768 5772
5730 5727 5723 5719 5715 5711 5708 5704 5700 5695 5691 5688 5684 5680 5675 5671 5667 5663 5660 5656 5653 5650 5647 5643 5640 5636 5631 5627 5623 5620 5617 5614 5612 5610 5609 5608 5607 5606 5605 5604 5603 5602 5601 5599 5598 5597 5597 5598 5600 5601 5602 5603 5606 5609 5612 5618 5621 5625 5630 5633 5635 5642 5651 5659 5665 5669 5673 5679 5682 5687 5692 5693 5696 5702 5709 5714 5721 5729 5736 5741 5743 5747 5751 5757 5762 5765 5769
5729 5726 5722 5718 5715 5711 5708 5704 5699 5695 5692 5688 5684 5680 5676 5671 5667 5663 5659 5656 5653 5650 5647 5643 5640 5636 5632 5628 5624 5621 5618 5615 5613 5611 5609 5609 5608 5607 5606 5604 5603 5602 5600 5599 5598 5597 5597 5598 5599 5601 5603 5603 5606 5609 5612 5616 5620 5623 5628 5632 5634 5640 5647 5654 5660 5665 5669 5673 5678 5684 5690 5693 5694 5699 5705 5710 5717 5725 5732 5735 5738 5742 5747 5753 5757 5761 5765
5728 5725 5721 5718 5714 5711 5707 5703 5699 5696 5692 5688 5685 5681 5676 5672 5667 5663 5659 5656 5652 5650 5647 5644 5641 5637 5633 5629 5625 5622 5619 5616 5614 5612 5610 5609 5608 5607 5606 5605 5604 5602 5601 5600 5599 5598 5597 5599 5599 5600 5602 5603 5605 5609 5612 5616 5620 5623 5627 5631 5633 5638 5644 5649 5655 5662 5667 5670 5675 5681 5687 5691 5693 5696 5701 5707 5713 5719 5725 5731 5735 5737 5741 5746 5751 5755 5760
5727 5724 5721 5717 5714 5710 5707 5703 5699 5696 5693 5689 5686 5682 5678 5673 5668 5664 5660 5656 5653 5650 5647 5644 5641 5638 5634 5631 5627 5623 5620 5617 5614 5612 5610 5609 5608 5607 5606 5605 5604 5603 5601 5601 5600 5599 5599 5599 5599 5600 5601 5602 5605 5609 5612 5616 5620 5623 5626 5630 5633 5636 5641 5646 5652 5658 5663 5667 5673 5679 5683 5686 5690 5693 5697 5703 5709 5714 5720 5728 5732 5732 5733 5738 5744 5750 5755
5726 5723 5720 5717 5713 5710 5707 5703 5700 5697 5694 5690 5687 5684 5679 5675 5670 5665 5662 5658 5654 5651 5647 5645 5642 5639 5635 5632 5628 5625 5622 5618 5616 5613 5611 5610 5609 5607 5607 5606 5605 5604 5603 5602 5602 5601 5600 5600 5600 5600 5601 5603 5606 5609 5612 5615 5620 5622 5625 5630 5633 5634 5637 5642 5649 5656 5661 5666 5671 5675 5678 5681 5685 5688 5692 5697 5704 5711 5717 5722 5727 5728 5727 5730 5737 5744 5750
5726 5723 5719 5716 5713 5710 5707 5704 5701 5698 5695 5692 5689 5686 5681 5676 5672 5668 5664 5660 5656 5652 5649 5646 5643 5640 5637 5634 5631 5627 5624 5620 5617 5615 5613 5611 5609 5608 5608 5607 5606 5605 5604 5603 5603 5604 5603 5603 5603 5602 5603 5605 5607 5610 5612 5615 5619 5621 5625 5629 5631 5631 5634 5639 5646 5652 5658 5661 5665 5669 5673 5675 5679 5683 5688 5693 5700 5707 5712 5717 5722 5724 5723 5724 5731 5739 5744
5725 5722 5719 5716 5713 5710 5707 5704 5702 5699 5697 5694 5691 5687 5683 5678 5674 5670 5666 5663 5658 5655 5651 5648 5645 5642 5639 5636 5632 5629 5626 5623 5620 5617 5615 5612 5611 5609 5608 5607 5606 5606 5606 5605 5605 5606 5606 5605 5605 5605 5606 5607 5609 5611 5613 5616 5619 5621 5623 5626 5629 5629 5631 5635 5641 5647 5652 5655 5659 5665 5668 5670 5675 5681 5686 5691 5697 5702 5708 5713 5717 5719 5718 5719 5724 5729 5735
5725 5722 5719 5716 5713 5710 5707 5705 5703 5701 5698 5695 5692 5689 5685 5680 5676 5672 5669 5665 5661 5657 5654 5650 5646 5643 5640 5637 5634 5631 5629 5625 5622 5619 5617 5614 5613 5611 5609 5608 5607 5607 5607 5607 5607 5607 5608 5607 5607 5608 5608 5609 5611 5613 5615 5617 5620 5621 5622 5624 5627 5628 5629 5632 5637 5643 5648 5651 5656 5661 5661 5664 5672 5680 5685 5689 5694 5699 5704 5708 5712 5714 5714 5715 5719 5723 5728
5724 5721 5718 5716 5713 5711 5708 5706 5704 5702 5699 5696 5693 5690 5687 5682 5678 5675 5671 5668 5664 5660 5657 5653 5649 5646 5643 5640 5637 5634 5631 5628 5625 5622 5620 5617 5615 5613 5611 5609 5608 5608 5607 5608 5608 5609 5609 5609 5609 5610 5610 5612 5613 5614 5616 5619 5620 5621 5621 5624 5626 5629 5631 5633 5636 5640 5645 5649 5654 5656 5656 5661 5671 5678 5682 5687 5691 5695 5699 5704 5708 5711 5713 5714 5716 5720 5724
5724 5721 5718 5716 5713 5711 5708 5706 5705 5703 5700 5697 5695 5692 5688 5685 5681 5678 5674 5671 5667 5663 5659 5656 5653 5650 5647 5644 5641 5638 5635 5632 5629 5626 5623 5620 5618 5615 5613 5611 5610 5609 5608 5608 5608 5609 5610 5610 5611 5611 5612 5614 5615 5616 5618 5620 5620 5621 5622 5624 5627 5630 5633 5634 5636 5639 5644 5650 5654 5656 5658 5663 5671 5677 5681 5686 5690 5693 5696 5700 5703 5707 5710 5712 5714 5717 5722
5724 5721 5718 5716 5714 5711 5709 5707 5705 5703 5700 5698 5695 5693 5691 5687 5684 5681 5677 5673 5669 5666 5663 5660 5657 5654 5651 5648 5645 5642 5638 5636 5633 5629 5626 5623 5621 5618 5616 5614 5613 5611 5610 5609 5609 5609 5610 5611 5611 5612 5613 5615 5616 5617 5619 5620 5621 5621 5623 5625 5628 5631 5633 5635 5636 5639 5644 5648 5651 5654 5657 5663 5669 5675 5680 5686 5689 5692 5695 5699 5701 5703 5705 5708 5711 5715 5719
5724 5721 5718 5716 5714 5712 5709 5707 5705 5703 5701 5698 5696 5694 5692 5690 5687 5684 5680 5676 5672 5669 5667 5663 5660 5657 5654 5652 5649 5645 5642 5639 5636 5633 5629 5627 5624 5622 5620 5618 5616 5614 5613 5612 5611 5611 5611 5612 5612 5613 5614 5616 5617 5618 5620 5621 5622 5623 5624 5626 5628 5630 5633 5635 5636 5639 5643 5645 5647 5651 5656 5662 5668 5672 5678 5683 5687 5689 5693 5696 5699 5701 5703 5704 5707 5711 5715
5723 5721 5718 5716 5714 5712 5709 5707 5705 5703 5701 5698 5696 5694 5693 5691 5688 5686 5682 5679 5676 5672 5669 5666 5663 5660 5658 5655 5652 5648 5646 5643 5640 5637 5635 5632 5630 5628 5625 5623 5621 5619 5617 5616 5614 5613 5613 5613 5613 5614 5616 5617 5618 5619 5620 5621 5622 5623 5624 5625 5627 5629 5632 5635 5637 5640 5643 5644 5646 5650 5656 5662 5666 5669 5673 5678 5682 5685 5688 5691 5694 5697 5701 5703 5705 5707 5711
5723 5721 5718 5716 5714 5711 5709 5707 5705 5703 5700 5698 5696 5694 5693 5692 5689 5687 5684 5681 5678 5675 5672 5669 5667 5664 5662 5658 5655 5651 5649 5647 5645 5642 5640 5638 5636 5633 5631 5629 5626 5624 5622 5620 5619 5618 5616 5616 5615 5616 5616 5617 5619 5620 5620 5620 5621 5621 5622 5623 5625 5628 5631 5634 5638 5641 5643 5645 5647 5650 5656 5662 5665 5666 5669 5674 5677 5680 5683 5686 5689 5693 5697 5701 5703 5705 5707
5724 5721 5719 5717 5714 5712 5710 5708 5705 5703 5701 5699 5697 5695 5693 5692 5690 5687 5685 5682 5680 5677 5674 5672 5669 5667 5664 5661 5658 5655 5653 5651 5649 5647 5645 5642 5641 5639 5637 5634 5632 5630 5628 5626 5624 5622 5621 5620 5619 5618 5618 5618 5619 5619 5618 5618 5619 5620 5621 5622 5624 5627 5630 5634 5637 5641 5643 5645 5646 5649 5655 5662 5664 5665 5669 5673 5674 5675 5678 5682 5685 5688 5693 5698 5701 5703 5704
5724 5722 5720 5717 5715 5713 5710 5708 5706 5703 5701 5699 5697 5695 5693 5691 5690 5688 5685 5683 5681 5679 5676 5674 5671 5669 5667 5664 5661 5659 5657 5655 5653 5651 5649 5647 5645 5643 5641 5639 5637 5635 5633 5632 5630 5628 5626 5624 5623 5622 5621 5620 5619 5618 5617 5616 5617 5619 5621 5623 5624 5626 5629 5633 5636 5639 5642 5644 5645 5648 5655 5661 5662 5663 5666 5667 5667 5670 5674 5677 5681 5684 5688 5692 5696 5699 5701
5725 5723 5720 5718 5716 5713 5711 5708 5706 5704 5702 5700 5697 5695 5693 5692 5690 5688 5686 5683 5681 5679 5677 5675 5673 5671 5668 5666 5663 5662 5660 5658 5656 5655 5653 5650 5648 5646 5644 5643 5641 5639 5638 5636 5635 5633 5631 5629 5627 5626 5624 5622 5621 5620 5619 5618 5618 5619 5621 5622 5623 5625 5627 5630 5633 5636 5640 5642 5642 5646 5653 5656 5655 5655 5659 5661 5664 5668 5670 5672 5676 5679 5683 5686 5690 5694 5697
5725 5723 5720 5718 5716 5714 5711 5709 5706 5704 5702 5700 5698 5696 5694 5692 5690 5688 5685 5683 5681 5679 5677 5676 5674 5671 5669 5667 5665 5663 5662 5660 5658 5657 5655 5653 5650 5648 5647 5645 5643 5642 5640 5639 5637 5636 5634 5632 5631 5629 5628 5626 5624 5622 5621 5620 5620 5620 5619 5620 5621 5623 5624 5626 5628 5631 5634 5635 5636 5640 5645 5646 5646 5649 5655 5659 5662 5663 5665 5667 5670 5674 5677 5681 5684 5688 5692
5725 5723 5720 5718 5716 5714 5712 5709 5707 5705 5702 5700 5698 5696 5694 5692 5691 5689 5686 5684 5681 5679 5678 5676 5674 5673 5671 5669 5667 5665 5663 5662 5660 5658 5656 5654 5652 5650 5649 5647 5645 5643 5642 5640 5639 5638 5636 5634 5633 5631 5629 5628 5626 5623 5622 5622 5622 5621 5621 5620 5620 5621 5622 5623 5623 5624 5625 5626 5629 5633 5636 5638 5642 5647 5651 5653 5654 5656 5658 5661 5665 5668 5672 5676 5679 5683 5686
5724 5722 5720 5717 5716 5714 5712 5709 5707 5705 5703 5700 5698 5696 5694 5693 5691 5689 5687 5685 5683 5681 5679 5678 5676 5674 5672 5670 5668 5666 5664 5663 5661 5659 5657 5655 5654 5652 5650 5648 5647 5645 5643 5642 5640 5638 5637 5635 5634 5631 5629 5627 5625 5623 5622 5622 5621 5621 5621 5620 5620 5619 5620 5620 5621 5621 5621 5621 5623 5626 5628 5632 5638 5643 5644 5645 5647 5650 5652 5656 5660 5663 5667 5670 5674 5677 5680
5723 5721 5719 5717 5715 5713 5711 5709 5707 5705 5702 5700 5698 5696 5694 5693 5691 5690 5688 5686 5684 5682 5681 5679 5677 5675 5673 5671 5669 5667 5666 5664 5662 5660 5658 5656 5654 5653 5651 5650 5648 5646 5644 5642 5641 5639 5637 5636 5634 5632 5630 5627 5625 5623 5622 5621 5620 5619 5618 5618 5618 5618 5618 5618 5618 5618 5618 5618 5619 5619 5619 5622 5627 5631 5634 5637 5639 5642 5646 5650 5654 5658 5661 5664 5667 5670 5673
5723 5721 5719 5717 5715 5713 5711 5709 5707 5704 5702 5699 5698 5696 5694 5693 5691 5689 5688 5686 5684 5683 5681 5680 5678 5676 5674 5672 5670 5668 5667 5665 5663 5661 5659 5657 5655 5653 5652 5650 5649 5647 5645 5643 5641 5639 5637 5636 5635 5633 5630 5628 5626 5625 5624 5622 5620 5619 5618 5617 5616 5616 5615 5616 5615 5615 5615 5615 5615 5615 5615 5615 5616 5619 5623 5627 5630 5634 5640 5644 5648 5651 5655 5658 5661 5664 5667
5723 5721 5719 5717 5715 5714 5712 5710 5707 5704 5701 5700 5698 5697 5695 5694 5692 5690 5688 5687 5685 5684 5682 5680 5678 5677 5675 5673 5671 5669 5668 5666 5663 5661 5659 5658 5656 5654 5652 5650 5649 5647 5645 5643 5642 5640 5638 5637 5635 5634 5632 5629 5627 5626 5624 5622 5620 5619 5618 5616 5616 5614 5614 5613 5613 5613 5613 5612 5612 5612 5612 5611 5611 5612 5613 5616 5620 5625 5631 5636 5641 5645 5648 5651 5654 5658 5662
5723 5721 5719 5718 5716 5714 5712 5709 5706 5704 5702 5701 5699 5698 5696 5695 5693 5691 5689 5687 5686 5684 5682 5681 5679 5677 5675 5673 5671 5670 5668 5666 5664 5661 5659 5657 5656 5654 5652 5651 5649 5647 5645 5644 5642 5640 5639 5637 5636 5634 5632 5630 5628 5626 5624 5622 5620 5619 5617 5616 5614 5613 5612 5612 5611 5611 5610 5610 5609 5608 5608 5608 5608 5608 5608 5609 5612 5616 5621 5626 5631 5635 5639 5643 5647 5651 5655
5724 5723 5721 5719 5717 5714 5712 5710 5707 5706 5704 5703 5701 5699 5698 5696 5694 5692 5690 5688 5686 5685 5683 5681 5679 5677 5675 5674 5672 5670 5668 5666 5664 5662 5660 5658 5656 5655 5653 5651 5649 5647 5645 5643 5642 5640 5638 5637 5636 5634 5632 5630 5628 5626 5624 5621 5620 5618 5616 5615 5613 5612 5611 5610 5609 5608 5608 5607 5607 5606 5605 5605 5605 5605 5605 5606 5607 5610 5613 5617 5621 5625 5629 5635 5640 5644 5647
5726 5724 5722 5720 5717 5715 5713 5711 5710 5708 5706 5704 5702 5701 5699 5697 5695 5693 5691 5689 5687 5685 5683 5681 5680 5678 5676 5674 5672 5671 5668 5666 5664 5662 5661 5659 5657 5655 5653 5650 5648 5646 5644 5643 5641 5639 5637 5636 5635 5633 5631 5629 5627 5625 5623 5621 5620 5618 5616 5614 5612 5611 5609 5608 5607 5606 5606 5605 5604 5603 5603 5602 5602 5602 5602 5603 5604 5605 5607 5609 5612 5616 5620 5625 5630 5634 5638
5726 5724 5722 5720 5718 5716 5714 5713 5711 5709 5707 5705 5703 5701 5699 5697 5695 5693 5692 5690 5688 5686 5684 5682 5681 5679 5677 5675 5673 5671 5669 5667 5664 5662 5661 5659 5657 5655 5653 5650 5648 5646 5644 5642 5640 5638 5637 5635 5634 5632 5630 5628 5626 5624 5622 5621 5619 5617 5615 5613 5611 5609 5608 5606 5605 5604 5603 5603 5602 5601 5600 5600 5599 5599 5599 5599 5600 5601 5603 5604 5606 5609 5613 5616 5620 5624 5628
5726 5724 5722 5720 5719 5717 5716 5714 5712 5710 5708 5705 5704 5702 5700 5698 5696 5694 5692 5690 5688 5687 5685 5683 5681 5679 5677 5675 5673 5671 5669 5667 5665 5663 5661 5659 5657 5655 5652 5650 5648 5646 5644 5642 5639 5638 5636 5635 5633 5631 5629 5627 5625 5623 5622 5620 5618 5617 5614 5612 5610 5609 5607 5605 5604 5602 5601 5600 5600 5599 5597 5597 5596 5596 5596 5595 5596 5597 5599 5600 5602 5603 5606 5609 5612 5615 5618
5725 5724 5722 5721 5720 5718 5716 5714 5712 5710 5707 5706 5704 5701 5699 5698 5696 5694 5692 5690 5688 5686 5684 5682 5681 5679 5677 5675 5673 5671 5669 5667 5665 5664 5661 5659 5656 5654 5652 5650 5648 5646 5644 5641 5639 5637 5635 5633 5632 5630 5628 5626 5624 5623 5621 5619 5617 5616 5614 5612 5610 5608 5606 5605 5603 5601 5599 5598 5597 5596 5595 5594 5594 5594 5594 5593 5593 5594 5595 5596 5597 5599 5601 5602 5604 5606 5608
5725 5723 5722 5721 5719 5717 5716 5714 5712 5709 5707 5705 5703 5701 5699 5698 5696 5694 5692 5690 5688 5686 5684 5682 5680 5678 5677 5675 5673 5671 5669 5667 5665 5663 5661 5659 5656 5654 5652 5650 5648 5645 5643 5641 5639 5637 5635 5632 5630 5629 5627 5625 5623 5622 5620 5618 5616 5614 5613 5611 5609 5608 5606 5604 5603 5601 5599 5597 5596 5595 5593 5593 5593 5593 5593 5592 5592 5592 5592 5593 5594 5595 5597 5598 5599 5600 5602
5725 5723 5722 5720 5718 5716 5715 5713 5711 5709 5707 5705 5703 5701 5699 5698 5696 5694 5692 5690 5688 5686 5684 5681 5679 5678 5676 5674 5672 5670 5669 5667 5665 5663 5660 5658 5656 5655 5652 5650 5647 5645 5643 5641 5639 5636 5634 5632 5630 5628 5626 5624 5622 5621 5619 5617 5615 5613 5612 5610 5609 5607 5605 5603 5602 5600 5598 5597 5595 5593 5592 5592 5592 5592 5592 5591 5590 5590 5590 5591 5592 5593 5594 5595 5596 5597 5599
5724 5723 5721 5719 5718 5716 5714 5712 5710 5708 5706 5704 5703 5701 5699 5698 5696 5694 5692 5690 5688 5686 5683 5681 5679 5677 5675 5674 5672 5670 5668 5666 5664 5662 5660 5658 5656 5654 5651 5649 5647 5645 5643 5640 5638 5636 5633 5631 5629 5627 5625 5623 5621 5620 5618 5616 5614 5612 5610 5609 5608 5606 5605 5603 5601 5599 5598 5596 5595 5593 5592 5591 5591 5591 5590 5590 5589 5589 5589 5589 5590 5591 5592 5593 5594 5595 5596
5724 5722 5720 5718 5717 5716 5714 5711 5709 5708 5706 5704 5703 5701 5699 5698 5696 5694 5692 5690 5687 5685 5683 5681 5679 5677 5675 5673 5671 5669 5667 5665 5663 5661 5659 5658 5656 5653 5651 5649 5646 5644 5641 5639 5637 5635 5632 5630 5628 5626 5624 5622 5620 5618 5616 5615 5613 5611 5609 5608 5606 5605 5604 5602 5600 5599 5597 5596 5595 5593 5592 5591 5590 5590 5589 5588 5588 5588 5588 5588 5588 5589 5590 5591 5592 5593 5594
5724 5722 5720 5718 5716 5714 5713 5711 5709 5707 5706 5704 5703 5701 5699 5697 5695 5693 5691 5689 5687 5685 5683 5680 5678 5676 5674 5672 5670 5668 5667 5665 5663 5661 5659 5657 5654 5652 5650 5647 5645 5643 5640 5638 5635 5633 5631 5629 5627 5625 5623 5621 5619 5617 5615 5613 5611 5610 5608 5607 5605 5603 5602 5601 5599 5598 5596 5595 5594 5593 5592 5591 5590 5589 5588 5587 5587 5587 5588 5588 5588 5588 5589 5590 5591 5592 5593
5723 5721 5719 5718 5716 5714 5712 5711 5709 5707 5706 5704 5703 5701 5699 5697 5695 5692 5690 5688 5686 5684 5682 5680 5678 5676 5673 5671 5669 5667 5666 5664 5662 5660 5658 5656 5653 5651 5649 5646 5643 5641 5638 5636 5633 5631 5629 5627 5625 5623 5621 5620 5618 5616 5613 5611 5610 5608 5606 5605 5604 5602 5601 5600 5598 5596 5595 5594 5593 5592 5591 5590 5589 5589 5589 5588 5588 5588 5588 5588 5588 5588 5589 5590 5591 5591 5592
5721 5720 5718 5717 5715 5713 5712 5710 5708 5706 5705 5703 5702 5700 5698 5696 5694 5692 5689 5687 5686 5684 5681 5679 5677 5675 5673 5670 5668 5666 5664 5662 5660 5658 5656 5654 5652 5650 5647 5644 5641 5639 5636 5634 5631 5629 5627 5624 5622 5621 5619 5617 5616 5614 5612 5610 5608 5606 5604 5603 5602 5601 5599 5598 5597 5596 5594 5592 5591 5591 5590 5589 5588 5588 5588 5588 5588 5588 5588 5588 5589 5589 5589 5590 5590 5591 5592